Time,TemperatureF,DewpointF,PressureIn,WindDirection,WindDirectionDegrees,WindSpeedMPH,WindSpeedGustMPH,Humidity,HourlyPrecipIn,Conditions,Clouds,dailyrainin,SoftwareType,DateUTC
2013-05-21 00:00:00,71.6,67.9,30.00,SSE,163,4.2,4.6,88,0.00,CLR,,0.00,WeatherDisplay:10.37,2013-05-21 04:00:00,
2013-05-21 00:01:00,71.6,67.9,30.00,SSE,163,4.1,5.0,88,0.00,CLR,,0.00,WeatherDisplay:10.37,2013-05-21 04:01:00,
2013-05-21 00:06:00,71.6,68.2,30.00,SSE,163,4.0,5.0,89,0.00,CLR,,0.00,WeatherDisplay:10.37,2013-05-21 04:06:00,
2013-05-21 00:11:00,71.5,68.1,30.00,SSE,163,2.9,4.0,89,0.00,CLR,,0.00,WeatherDisplay:10.37,2013-05-21 04:11:00,
2013-05-21 00:16:00,71.5,68.1,30.01,South,178,3.3,3.5,89,0.00,CLR,,0.00,WeatherDisplay:10.37,2013-05-21 04:16:00,
2013-05-21 00:21:00,71.5,68.1,30.01,South,178,2.9,4.0,89,0.00,CLR,,0.00,WeatherDisplay:10.37,2013-05-21 04:21:00,
2013-05-21 00:26:00,71.5,68.1,30.01,South,178,2.8,4.0,89,0.00,CLR,,0.00,WeatherDisplay:10.37,2013-05-21 04:26:00,
2013-05-21 00:31:00,71.3,67.9,30.01,South,178,3.4,4.0,89,0.00,CLR,,0.00,WeatherDisplay:10.37,2013-05-21 04:31:00,
2013-05-21 00:36:00,71.3,68.2,30.01,South,178,3.2,3.5,90,0.00,CLR,,0.00,WeatherDisplay:10.37,2013-05-21 04:36:00,
2013-05-21 00:41:00,71.1,68.0,30.01,South,178,3.3,4.0,90,0.00,CLR,,0.00,WeatherDisplay:10.37,2013-05-21 04:41:00,
2013-05-21 00:46:00,71.1,68.0,30.01,South,178,3.3,3.5,90,0.00,CLR,,0.00,WeatherDisplay:10.37,2013-05-21 04:46:00,
2013-05-21 00:51:00,70.9,67.8,30.01,South,178,4.0,5.0,90,0.00,CLR,,0.00,WeatherDisplay:10.37,2013-05-21 04:51:00,
2013-05-21 00:56:00,70.9,67.8,30.01,South,178,3.7,4.6,90,0.00,CLR,,0.00,WeatherDisplay:10.37,2013-05-21 04:56:00,
2013-05-21 01:01:00,70.8,67.7,30.01,South,178,3.4,3.5,90,0.00,CLR,,0.00,WeatherDisplay:10.37,2013-05-21 05:01:00,
2013-05-21 01:06:00,70.6,67.8,30.01,South,178,3.1,3.5,91,0.00,CLR,,0.00,WeatherDisplay:10.37,2013-05-21 05:06:00,
2013-05-21 01:11:00,70.4,67.6,30.01,South,178,3.2,4.0,91,0.00,CLR,,0.00,WeatherDisplay:10.37,2013-05-21 05:11:00,
2013-05-21 01:16:00,70.3,67.5,30.01,South,178,3.3,4.0,91,0.00,CLR,,0.00,WeatherDisplay:10.37,2013-05-21 05:16:00,
2013-05-21 01:21:00,70.3,67.5,30.01,South,178,3.4,3.5,91,0.00,CLR,,0.00,WeatherDisplay:10.37,2013-05-21 05:21:00,
2013-05-21 01:26:00,70.1,67.3,30.01,South,178,3.3,3.5,91,0.00,CLR,,0.00,WeatherDisplay:10.37,2013-05-21 05:26:00,
2013-05-21 01:31:00,69.9,67.2,30.01,South,178,3.1,3.5,91,0.00,CLR,,0.00,WeatherDisplay:10.37,2013-05-21 05:31:00,
2013-05-21 01:36:00,69.9,67.2,30.01,South,178,2.9,3.5,91,0.00,CLR,,0.00,WeatherDisplay:10.37,2013-05-21 05:36:00,
2013-05-21 01:41:00,69.9,67.2,30.01,South,178,2.8,4.0,91,0.00,CLR,,0.00,WeatherDisplay:10.37,2013-05-21 05:41:00,
2013-05-21 01:46:00,69.9,67.2,30.00,South,178,2.6,3.5,91,0.00,CLR,,0.00,WeatherDisplay:10.37,2013-05-21 05:46:00,
2013-05-21 01:51:00,69.9,67.2,30.00,South,178,3.3,4.6,91,0.00,CLR,,0.00,WeatherDisplay:10.37,2013-05-21 05:51:00,
2013-05-21 01:56:00,69.9,67.2,30.00,South,178,2.8,3.5,91,0.00,CLR,,0.00,WeatherDisplay:10.37,2013-05-21 05:56:00,
2013-05-21 02:01:00,69.8,67.1,30.00,South,178,3.0,3.5,91,0.00,SCT,,0.00,WeatherDisplay:10.37,2013-05-21 06:01:00,
2013-05-21 02:06:00,69.8,67.1,30.00,South,178,3.0,3.5,91,0.00,SCT,,0.00,WeatherDisplay:10.37,2013-05-21 06:06:00,
2013-05-21 02:11:00,69.8,67.1,30.00,South,178,3.1,3.5,91,0.00,SCT,,0.00,WeatherDisplay:10.37,2013-05-21 06:11:00,
2013-05-21 02:16:00,69.6,66.9,30.00,South,178,2.7,3.5,91,0.00,SCT,,0.00,WeatherDisplay:10.37,2013-05-21 06:16:00,
2013-05-21 02:21:00,69.6,66.9,30.00,South,178,3.0,3.5,91,0.00,OVC,,0.00,WeatherDisplay:10.37,2013-05-21 06:21:00,
2013-05-21 02:26:00,69.4,66.7,29.99,South,178,2.3,3.5,91,0.00,OVC,,0.00,WeatherDisplay:10.37,2013-05-21 06:26:00,
2013-05-21 02:31:00,69.4,67.0,30.00,South,178,2.7,3.5,92,0.00,OVC,,0.00,WeatherDisplay:10.37,2013-05-21 06:31:00,
2013-05-21 02:36:00,69.4,67.0,30.00,South,178,2.0,2.3,92,0.00,OVC,,0.00,WeatherDisplay:10.37,2013-05-21 06:36:00,
2013-05-21 02:42:00,69.3,66.9,29.99,South,178,2.0,3.5,92,0.00,OVC,,0.00,WeatherDisplay:10.37,2013-05-21 06:42:00,
2013-05-21 02:47:00,69.3,66.9,29.99,South,178,2.7,3.5,92,0.00,OVC,,0.00,WeatherDisplay:10.37,2013-05-21 06:47:00,
2013-05-21 02:52:00,69.3,66.9,29.99,South,178,2.7,3.5,92,0.00,SCT,,0.00,WeatherDisplay:10.37,2013-05-21 06:52:00,
2013-05-21 02:57:00,69.3,66.9,29.99,South,178,2.3,3.5,92,0.00,SCT,,0.00,WeatherDisplay:10.37,2013-05-21 06:57:00,
2013-05-21 03:02:00,69.3,66.9,29.98,South,178,2.8,3.5,92,0.00,SCT,,0.00,WeatherDisplay:10.37,2013-05-21 07:02:00,
2013-05-21 03:07:00,69.1,66.7,29.99,South,178,2.6,3.5,92,0.00,SCT,,0.00,WeatherDisplay:10.37,2013-05-21 07:07:00,
2013-05-21 03:12:00,69.1,67.0,29.98,South,178,2.6,3.5,93,0.00,CLR,,0.00,WeatherDisplay:10.37,2013-05-21 07:12:00,
2013-05-21 03:17:00,68.9,66.8,29.98,South,178,2.6,3.5,93,0.00,CLR,,0.00,WeatherDisplay:10.37,2013-05-21 07:17:00,
2013-05-21 03:22:00,68.9,66.8,29.98,South,178,1.9,3.5,93,0.00,CLR,,0.00,WeatherDisplay:10.37,2013-05-21 07:22:00,
2013-05-21 03:27:00,68.9,66.8,29.98,South,178,2.3,3.5,93,0.00,CLR,,0.00,WeatherDisplay:10.37,2013-05-21 07:27:00,
2013-05-21 03:32:00,68.8,66.7,29.99,South,178,0.0,3.5,93,0.00,SCT,,0.00,WeatherDisplay:10.37,2013-05-21 07:32:00,
2013-05-21 03:37:00,68.8,66.7,29.99,South,178,0.7,2.3,93,0.00,SCT,,0.00,WeatherDisplay:10.37,2013-05-21 07:37:00,
2013-05-21 03:42:00,68.6,66.5,29.99,South,178,1.7,3.5,93,0.00,SCT,,0.00,WeatherDisplay:10.37,2013-05-21 07:42:00,
2013-05-21 03:47:00,68.6,66.5,29.98,South,178,2.3,3.5,93,0.00,SCT,,0.00,WeatherDisplay:10.37,2013-05-21 07:47:00,
2013-05-21 03:52:00,68.6,66.8,29.98,South,178,2.0,3.5,94,0.00,BKN,,0.00,WeatherDisplay:10.37,2013-05-21 07:52:00,
2013-05-21 03:57:00,68.6,66.8,29.98,South,178,2.9,4.0,94,0.00,BKN,,0.00,WeatherDisplay:10.37,2013-05-21 07:57:00,
2013-05-21 04:02:00,68.6,66.8,29.98,South,178,2.9,3.5,94,0.00,BKN,,0.00,WeatherDisplay:10.37,2013-05-21 08:02:00,
2013-05-21 04:07:00,68.8,67.0,29.98,South,178,3.4,4.0,94,0.00,BKN,,0.00,WeatherDisplay:10.37,2013-05-21 08:07:00,
2013-05-21 04:12:00,68.8,67.0,29.98,South,178,3.4,4.6,94,0.00,OVC,,0.00,WeatherDisplay:10.37,2013-05-21 08:12:00,
2013-05-21 04:17:00,68.6,66.8,29.98,South,178,2.2,4.0,94,0.00,OVC,,0.00,WeatherDisplay:10.37,2013-05-21 08:17:00,
2013-05-21 04:22:00,68.6,66.8,29.98,South,178,2.9,3.5,94,0.00,OVC,,0.00,WeatherDisplay:10.37,2013-05-21 08:22:00,
2013-05-21 04:27:00,68.6,66.8,29.98,South,178,2.6,3.5,94,0.00,OVC,,0.00,WeatherDisplay:10.37,2013-05-21 08:27:00,
2013-05-21 04:32:00,68.6,66.8,29.97,South,178,3.0,3.5,94,0.00,SCT,,0.00,WeatherDisplay:10.37,2013-05-21 08:32:00,
2013-05-21 04:37:00,68.6,66.8,29.97,South,178,3.6,4.0,94,0.00,SCT,,0.00,WeatherDisplay:10.37,2013-05-21 08:37:00,
2013-05-21 04:42:00,68.6,67.1,29.97,South,178,3.4,3.5,95,0.00,SCT,,0.00,WeatherDisplay:10.37,2013-05-21 08:42:00,
2013-05-21 04:47:00,68.4,66.9,29.97,South,178,2.5,3.5,95,0.00,SCT,,0.00,WeatherDisplay:10.37,2013-05-21 08:47:00,
2013-05-21 04:52:00,68.4,66.9,29.97,South,178,3.1,4.0,95,0.00,SCT,,0.00,WeatherDisplay:10.37,2013-05-21 08:52:00,
2013-05-21 04:57:00,68.4,66.9,29.97,South,178,1.4,3.5,95,0.00,SCT,,0.00,WeatherDisplay:10.37,2013-05-21 08:57:00,
2013-05-21 05:02:00,68.4,66.9,29.98,South,178,2.0,3.5,95,0.00,SCT,,0.00,WeatherDisplay:10.37,2013-05-21 09:02:00,
2013-05-21 05:07:00,68.3,66.8,29.98,South,178,1.7,3.5,95,0.00,SCT,,0.00,WeatherDisplay:10.37,2013-05-21 09:07:00,
2013-05-21 05:12:00,68.3,66.8,29.98,South,178,1.9,3.5,95,0.00,CLR,,0.00,WeatherDisplay:10.37,2013-05-21 09:12:00,
2013-05-21 05:17:00,68.3,66.8,29.99,South,178,0.0,0.0,95,0.00,CLR,,0.00,WeatherDisplay:10.37,2013-05-21 09:17:00,
2013-05-21 05:22:00,68.3,66.8,29.99,South,178,1.1,3.5,95,0.00,CLR,,0.00,WeatherDisplay:10.37,2013-05-21 09:22:00,
2013-05-21 05:27:00,68.3,66.8,29.99,South,178,2.1,3.5,95,0.00,CLR,,0.00,WeatherDisplay:10.37,2013-05-21 09:27:00,
2013-05-21 05:32:00,68.3,66.8,29.99,SW,225,1.7,3.5,95,0.00,CLR,,0.00,WeatherDisplay:10.37,2013-05-21 09:32:00,
2013-05-21 05:37:00,68.3,66.8,29.99,SW,225,0.0,0.0,95,0.00,CLR,,0.00,WeatherDisplay:10.37,2013-05-21 09:37:00,
2013-05-21 05:42:00,68.3,66.8,29.99,South,188,2.4,3.5,95,0.00,CLR,,0.00,WeatherDisplay:10.37,2013-05-21 09:42:00,
2013-05-21 05:47:00,68.4,66.9,30.00,South,188,2.3,3.5,95,0.00,CLR,,0.00,WeatherDisplay:10.37,2013-05-21 09:47:00,
2013-05-21 05:52:00,68.4,66.9,30.00,South,188,1.6,2.3,95,0.00,BKN,,0.00,WeatherDisplay:10.37,2013-05-21 09:52:00,
2013-05-21 05:57:00,68.6,67.1,30.00,South,188,3.1,4.0,95,0.00,BKN,,0.00,WeatherDisplay:10.37,2013-05-21 09:57:00,
2013-05-21 06:02:00,68.6,67.4,30.00,South,188,2.6,3.5,96,0.00,BKN,,0.00,WeatherDisplay:10.37,2013-05-21 10:02:00,
2013-05-21 06:07:00,68.8,67.6,30.01,South,188,1.9,3.5,96,0.00,BKN,,0.00,WeatherDisplay:10.37,2013-05-21 10:07:00,
2013-05-21 06:12:00,68.6,67.1,30.01,South,188,0.0,0.0,95,0.00,OVC,,0.00,WeatherDisplay:10.37,2013-05-21 10:12:00,
2013-05-21 06:17:00,68.6,67.1,30.01,South,188,0.0,0.0,95,0.00,OVC,,0.00,WeatherDisplay:10.37,2013-05-21 10:17:00,
2013-05-21 06:22:00,68.8,67.3,30.01,South,188,2.1,3.5,95,0.00,OVC,,0.00,WeatherDisplay:10.37,2013-05-21 10:22:00,
2013-05-21 06:27:00,68.8,67.3,30.01,South,188,1.7,2.3,95,0.00,OVC,,0.00,WeatherDisplay:10.37,2013-05-21 10:27:00,
2013-05-21 06:32:00,68.8,67.3,30.01,South,188,0.0,0.0,95,0.00,OVC,,0.00,WeatherDisplay:10.37,2013-05-21 10:32:00,
2013-05-21 06:37:00,68.8,67.3,30.02,South,188,0.0,0.0,95,0.00,OVC,,0.00,WeatherDisplay:10.37,2013-05-21 10:37:00,
2013-05-21 06:42:00,68.8,67.3,30.02,South,188,0.2,1.2,95,0.00,OVC,,0.00,WeatherDisplay:10.37,2013-05-21 10:42:00,
2013-05-21 06:47:00,68.8,67.3,30.02,South,188,0.0,0.0,95,0.00,OVC,,0.00,WeatherDisplay:10.37,2013-05-21 10:47:00,
2013-05-21 06:52:00,68.6,67.1,30.02,South,188,0.0,0.0,95,0.00,OVC,,0.00,WeatherDisplay:10.37,2013-05-21 10:52:00,
2013-05-21 06:57:00,68.4,66.9,30.02,South,188,0.0,0.0,95,0.00,OVC,,0.00,WeatherDisplay:10.37,2013-05-21 10:57:00,
2013-05-21 07:02:00,68.4,66.9,30.03,SW,229,0.9,3.5,95,0.00,OVC,,0.00,WeatherDisplay:10.37,2013-05-21 11:02:00,
2013-05-21 07:07:00,68.4,66.9,30.02,SW,229,0.0,0.0,95,0.00,OVC,,0.00,WeatherDisplay:10.37,2013-05-21 11:07:00,
2013-05-21 07:12:00,68.4,66.9,30.02,SW,229,0.0,0.0,95,0.00,OVC,,0.00,WeatherDisplay:10.37,2013-05-21 11:12:00,
2013-05-21 07:17:00,68.4,66.9,30.02,SW,229,0.0,0.0,95,0.00,OVC,,0.00,WeatherDisplay:10.37,2013-05-21 11:17:00,
2013-05-21 07:22:00,68.6,67.1,30.02,SW,229,0.0,0.0,95,0.00,OVC,,0.00,WeatherDisplay:10.37,2013-05-21 11:22:00,
2013-05-21 07:27:00,68.6,67.1,30.02,SW,229,0.0,0.0,95,0.00,OVC,,0.00,WeatherDisplay:10.37,2013-05-21 11:27:00,
2013-05-21 07:32:00,68.6,67.1,30.02,SW,229,0.0,0.0,95,0.00,OVC,,0.00,WeatherDisplay:10.37,2013-05-21 11:32:00,
2013-05-21 07:37:00,68.6,67.1,30.02,SW,229,0.0,0.0,95,0.00,OVC,,0.00,WeatherDisplay:10.37,2013-05-21 11:37:00,
2013-05-21 07:42:00,68.8,67.3,30.02,SW,229,0.0,1.0,95,0.00,OVC,,0.00,WeatherDisplay:10.37,2013-05-21 11:42:00,
2013-05-21 07:47:00,68.8,67.3,30.02,SW,229,0.0,0.0,95,0.00,OVC,,0.00,WeatherDisplay:10.37,2013-05-21 11:47:00,
2013-05-21 07:52:00,68.9,67.4,30.02,SW,229,2.0,3.5,95,0.00,OVC,,0.00,WeatherDisplay:10.37,2013-05-21 11:52:00,
2013-05-21 07:57:00,69.1,67.6,30.01,South,189,2.9,4.0,95,0.00,OVC,,0.00,WeatherDisplay:10.37,2013-05-21 11:57:00,
2013-05-21 08:02:00,69.1,67.6,30.02,South,189,0.8,2.3,95,0.00,OVC,,0.00,WeatherDisplay:10.37,2013-05-21 12:02:00,
2013-05-21 08:07:00,69.1,67.6,30.03,South,189,1.5,3.5,95,0.00,OVC,,0.00,WeatherDisplay:10.37,2013-05-21 12:07:00,
2013-05-21 08:12:00,68.9,67.4,30.02,South,189,2.6,3.5,95,0.00,OVC,,0.00,WeatherDisplay:10.37,2013-05-21 12:12:00,
2013-05-21 08:18:00,69.3,67.8,30.02,South,189,1.7,3.5,95,0.00,OVC,,0.00,WeatherDisplay:10.37,2013-05-21 12:18:00,
2013-05-21 08:23:00,69.3,67.8,30.02,South,189,0.0,0.0,95,0.00,OVC,,0.00,WeatherDisplay:10.37,2013-05-21 12:23:00,
2013-05-21 08:28:00,69.3,67.8,30.02,South,189,1.1,3.5,95,0.00,OVC,,0.00,WeatherDisplay:10.37,2013-05-21 12:28:00,
2013-05-21 08:33:00,69.3,67.5,30.02,South,189,0.0,0.0,94,0.00,OVC,,0.00,WeatherDisplay:10.37,2013-05-21 12:33:00,
2013-05-21 08:38:00,69.4,67.6,30.03,South,189,0.0,0.0,94,0.00,OVC,,0.00,WeatherDisplay:10.37,2013-05-21 12:38:00,
2013-05-21 08:43:00,69.4,67.6,30.02,South,189,0.8,1.2,94,0.00,OVC,,0.00,WeatherDisplay:10.37,2013-05-21 12:43:00,
2013-05-21 08:48:00,69.6,67.8,30.02,South,189,2.3,3.5,94,0.00,OVC,,0.00,WeatherDisplay:10.37,2013-05-21 12:48:00,
2013-05-21 08:53:00,69.6,67.8,30.02,South,189,2.1,3.5,94,0.00,OVC,,0.00,WeatherDisplay:10.37,2013-05-21 12:53:00,
2013-05-21 08:58:00,69.8,68.0,30.02,South,189,0.0,3.5,94,0.00,OVC,,0.00,WeatherDisplay:10.37,2013-05-21 12:58:00,
2013-05-21 09:03:00,69.9,68.1,30.03,South,189,0.6,2.3,94,0.00,OVC,,0.00,WeatherDisplay:10.37,2013-05-21 13:03:00,
2013-05-21 09:08:00,70.1,68.0,30.03,South,189,0.0,0.0,93,0.00,OVC,,0.00,WeatherDisplay:10.37,2013-05-21 13:08:00,
2013-05-21 09:13:00,70.3,68.2,30.03,South,189,0.0,0.0,93,0.00,OVC,,0.00,WeatherDisplay:10.37,2013-05-21 13:13:00,
2013-05-21 09:18:00,70.3,68.2,30.02,South,189,0.0,2.3,93,0.00,OVC,,0.00,WeatherDisplay:10.37,2013-05-21 13:18:00,
2013-05-21 09:23:00,70.3,67.9,30.01,South,189,2.6,4.0,92,0.00,OVC,,0.00,WeatherDisplay:10.37,2013-05-21 13:23:00,
2013-05-21 09:28:00,70.3,67.9,30.01,South,189,2.7,4.0,92,0.00,OVC,,0.00,WeatherDisplay:10.37,2013-05-21 13:28:00,
2013-05-21 09:33:00,70.4,67.6,30.01,South,189,2.7,3.5,91,0.00,OVC,,0.00,WeatherDisplay:10.37,2013-05-21 13:33:00,
2013-05-21 09:38:00,70.4,67.6,30.01,South,189,3.2,4.0,91,0.00,OVC,,0.00,WeatherDisplay:10.37,2013-05-21 13:38:00,
2013-05-21 09:43:00,70.6,67.5,30.01,South,189,3.2,4.0,90,0.00,OVC,,0.00,WeatherDisplay:10.37,2013-05-21 13:43:00,
2013-05-21 09:48:00,70.6,67.5,30.01,South,189,2.4,3.5,90,0.00,OVC,,0.00,WeatherDisplay:10.37,2013-05-21 13:48:00,
2013-05-21 09:53:00,70.8,67.4,30.01,South,189,2.8,3.5,89,0.00,OVC,,0.00,WeatherDisplay:10.37,2013-05-21 13:53:00,
2013-05-21 09:58:00,70.8,67.4,30.01,South,189,2.6,3.5,89,0.00,OVC,,0.00,WeatherDisplay:10.37,2013-05-21 13:58:00,
2013-05-21 10:03:00,70.8,67.4,30.01,South,189,2.2,3.5,89,0.00,OVC,,0.00,WeatherDisplay:10.37,2013-05-21 14:03:00,
2013-05-21 10:08:00,70.9,67.5,30.01,South,189,0.1,2.3,89,0.00,OVC,,0.00,WeatherDisplay:10.37,2013-05-21 14:08:00,
2013-05-21 10:13:00,70.9,67.2,30.01,South,189,2.5,3.5,88,0.00,OVC,,0.00,WeatherDisplay:10.37,2013-05-21 14:13:00,
2013-05-21 10:18:00,70.8,67.1,30.01,South,189,1.2,3.5,88,0.00,OVC,,0.00,WeatherDisplay:10.37,2013-05-21 14:18:00,
2013-05-21 10:23:00,70.9,67.2,30.01,South,189,0.4,2.3,88,0.00,OVC,,0.00,WeatherDisplay:10.37,2013-05-21 14:23:00,
2013-05-21 10:28:00,71.1,67.4,30.01,South,189,0.1,1.2,88,0.00,OVC,,0.00,WeatherDisplay:10.37,2013-05-21 14:28:00,
2013-05-21 10:33:00,71.1,67.4,30.01,South,189,2.5,3.5,88,0.00,OVC,,0.00,WeatherDisplay:10.37,2013-05-21 14:33:00,
2013-05-21 10:38:00,71.3,67.6,30.01,South,189,2.5,3.5,88,0.00,OVC,,0.00,WeatherDisplay:10.37,2013-05-21 14:38:00,
2013-05-21 10:43:00,71.1,67.0,30.01,South,189,3.4,4.0,87,0.00,OVC,,0.00,WeatherDisplay:10.37,2013-05-21 14:43:00,
2013-05-21 10:48:00,70.9,66.8,30.01,South,189,3.6,4.0,87,0.00,OVC,,0.00,WeatherDisplay:10.37,2013-05-21 14:48:00,
2013-05-21 10:53:00,70.8,66.7,30.01,South,189,2.8,3.5,87,0.00,OVC,,0.00,WeatherDisplay:10.37,2013-05-21 14:53:00,
2013-05-21 10:58:00,70.6,66.5,30.01,South,189,2.5,3.5,87,0.00,OVC,,0.00,WeatherDisplay:10.37,2013-05-21 14:58:00,
2013-05-21 11:03:00,70.8,67.1,30.00,SSE,168,3.6,5.0,88,0.00,OVC,,0.00,WeatherDisplay:10.37,2013-05-21 15:03:00,
2013-05-21 11:08:00,70.8,67.1,30.01,SSE,168,2.6,3.5,88,0.00,OVC,,0.00,WeatherDisplay:10.37,2013-05-21 15:08:00,
2013-05-21 11:13:00,70.8,67.1,30.01,SSE,168,2.3,4.6,88,0.00,OVC,,0.00,WeatherDisplay:10.37,2013-05-21 15:13:00,
2013-05-21 11:18:00,70.8,67.1,30.01,SSE,168,0.8,3.5,88,0.00,OVC,,0.00,WeatherDisplay:10.37,2013-05-21 15:18:00,
2013-05-21 11:23:00,70.9,67.2,30.01,SSE,168,2.4,3.5,88,0.00,OVC,,0.00,WeatherDisplay:10.37,2013-05-21 15:23:00,
2013-05-21 11:28:00,71.1,67.0,30.01,SSE,168,3.4,4.0,87,0.00,OVC,,0.00,WeatherDisplay:10.37,2013-05-21 15:28:00,
2013-05-21 11:33:00,71.5,67.4,30.01,SSE,168,3.1,4.6,87,0.00,OVC,,0.00,WeatherDisplay:10.37,2013-05-21 15:33:00,
2013-05-21 11:38:00,71.8,67.7,30.01,SSE,168,1.2,3.5,87,0.00,OVC,,0.00,WeatherDisplay:10.37,2013-05-21 15:38:00,
2013-05-21 11:43:00,71.8,67.4,30.01,SSE,168,2.5,3.5,86,0.00,OVC,,0.00,WeatherDisplay:10.37,2013-05-21 15:43:00,
2013-05-21 11:48:00,72.1,67.7,30.01,SSE,168,0.4,2.3,86,0.00,OVC,,0.00,WeatherDisplay:10.37,2013-05-21 15:48:00,
2013-05-21 11:53:00,72.3,67.5,30.01,SSE,168,1.2,3.5,85,0.00,OVC,,0.00,WeatherDisplay:10.37,2013-05-21 15:53:00,
2013-05-21 11:58:00,72.7,67.6,30.00,SSE,168,0.6,3.5,84,0.00,OVC,,0.00,WeatherDisplay:10.37,2013-05-21 15:58:00,
2013-05-21 12:03:00,72.7,67.6,30.00,SSE,168,1.4,3.5,84,0.00,OVC,,0.00,WeatherDisplay:10.37,2013-05-21 16:03:00,
2013-05-21 12:08:00,73.2,67.7,30.00,SSE,168,0.0,0.0,83,0.00,OVC,,0.00,WeatherDisplay:10.37,2013-05-21 16:08:00,
2013-05-21 12:13:00,73.7,68.2,30.00,SSE,168,0.9,3.5,83,0.00,OVC,,0.00,WeatherDisplay:10.37,2013-05-21 16:13:00,
2013-05-21 12:18:00,73.5,67.7,30.01,SSE,168,2.4,3.5,82,0.00,OVC,,0.00,WeatherDisplay:10.37,2013-05-21 16:18:00,
2013-05-21 12:23:00,73.2,67.4,30.00,SSE,168,0.1,1.2,82,0.00,OVC,,0.00,WeatherDisplay:10.37,2013-05-21 16:23:00,
2013-05-21 12:28:00,73.3,67.8,30.00,SSE,168,3.4,4.6,83,0.00,OVC,,0.00,WeatherDisplay:10.37,2013-05-21 16:28:00,
2013-05-21 12:33:00,73.3,67.8,30.00,South,176,4.0,5.8,83,0.00,OVC,,0.00,WeatherDisplay:10.37,2013-05-21 16:33:00,
2013-05-21 12:38:00,73.9,68.8,30.00,South,182,1.7,6.9,84,0.00,OVC,,0.00,WeatherDisplay:10.37,2013-05-21 16:38:00,
2013-05-21 12:43:00,74.4,68.5,30.00,South,180,3.1,4.6,82,0.00,OVC,,0.00,WeatherDisplay:10.37,2013-05-21 16:43:00,
2013-05-21 12:48:00,74.4,68.2,30.00,South,180,0.4,3.0,81,0.00,OVC,,0.00,WeatherDisplay:10.37,2013-05-21 16:48:00,
2013-05-21 12:53:00,74.2,68.3,30.00,South,180,1.2,3.0,82,0.00,OVC,,0.00,WeatherDisplay:10.37,2013-05-21 16:53:00,
2013-05-21 12:58:00,73.7,67.5,30.00,South,175,2.0,3.5,81,0.00,OVC,,0.00,WeatherDisplay:10.37,2013-05-21 16:58:00,
2013-05-21 13:03:00,73.7,68.2,30.00,South,175,1.4,3.5,83,0.00,OVC,,0.00,WeatherDisplay:10.37,2013-05-21 17:03:00,
2013-05-21 13:08:00,73.7,67.9,30.00,South,175,2.6,3.5,82,0.00,OVC,,0.00,WeatherDisplay:10.37,2013-05-21 17:08:00,
2013-05-21 13:13:00,73.9,68.4,30.00,South,175,1.3,3.5,83,0.00,OVC,,0.00,WeatherDisplay:10.37,2013-05-21 17:13:00,
2013-05-21 13:18:00,73.9,68.1,30.00,South,175,2.8,4.0,82,0.00,OVC,,0.00,WeatherDisplay:10.37,2013-05-21 17:18:00,
2013-05-21 13:23:00,73.7,67.9,30.00,South,175,1.0,4.6,82,0.00,OVC,,0.00,WeatherDisplay:10.37,2013-05-21 17:23:00,
2013-05-21 13:28:00,74.2,67.6,30.00,South,175,3.9,4.6,80,0.00,OVC,,0.00,WeatherDisplay:10.37,2013-05-21 17:28:00,
2013-05-21 13:33:00,74.6,68.4,30.00,South,175,3.1,4.0,81,0.00,OVC,,0.00,WeatherDisplay:10.37,2013-05-21 17:33:00,
2013-05-21 13:38:00,74.7,68.1,30.00,South,175,2.1,3.5,80,0.00,OVC,,0.00,WeatherDisplay:10.37,2013-05-21 17:38:00,
2013-05-21 13:43:00,75.4,68.8,30.00,South,175,0.0,0.0,80,0.00,OVC,,0.00,WeatherDisplay:10.37,2013-05-21 17:43:00,
2013-05-21 13:48:00,75.6,68.6,29.99,SSE,160,0.8,5.0,79,0.00,OVC,,0.00,WeatherDisplay:10.37,2013-05-21 17:48:00,
2013-05-21 13:53:00,75.6,68.3,29.98,South,171,3.7,5.8,78,0.00,OVC,,0.00,WeatherDisplay:10.37,2013-05-21 17:53:00,
2013-05-21 13:58:00,75.6,68.3,29.98,South,171,4.3,5.0,78,0.00,OVC,,0.00,WeatherDisplay:10.37,2013-05-21 17:58:00,
2013-05-21 14:03:00,75.6,68.3,29.98,SSE,163,3.6,5.8,78,0.00,BKN,,0.00,WeatherDisplay:10.37,2013-05-21 18:03:00,
2013-05-21 14:08:00,75.6,68.3,29.97,South,177,3.5,4.6,78,0.00,BKN,,0.00,WeatherDisplay:10.37,2013-05-21 18:08:00,
2013-05-21 14:13:00,76.0,69.0,29.97,SSE,157,4.1,7.0,79,0.00,BKN,,0.00,WeatherDisplay:10.37,2013-05-21 18:13:00,
2013-05-21 14:19:00,75.8,68.1,29.97,SSE,159,5.0,5.8,77,0.00,BKN,,0.00,WeatherDisplay:10.37,2013-05-21 18:19:00,
2013-05-21 14:24:00,75.6,67.9,29.97,SSE,166,4.0,5.8,77,0.00,BKN,,0.00,WeatherDisplay:10.37,2013-05-21 18:24:00,
2013-05-21 14:29:00,76.0,68.3,29.97,SSE,161,4.8,5.8,77,0.00,BKN,,0.00,WeatherDisplay:10.37,2013-05-21 18:29:00,
2013-05-21 14:34:00,76.3,69.3,29.97,SSE,162,3.2,3.5,79,0.00,SCT,,0.00,WeatherDisplay:10.37,2013-05-21 18:34:00,
2013-05-21 14:39:00,76.7,68.6,29.97,SSE,162,3.6,4.6,76,0.00,SCT,,0.00,WeatherDisplay:10.37,2013-05-21 18:39:00,
2013-05-21 14:44:00,76.8,69.0,29.97,SSE,161,2.3,4.6,77,0.00,SCT,,0.00,WeatherDisplay:10.37,2013-05-21 18:44:00,
2013-05-21 14:49:00,77.2,68.3,29.97,SSE,161,0.0,1.2,74,0.00,SCT,,0.00,WeatherDisplay:10.37,2013-05-21 18:49:00,
2013-05-21 14:54:00,77.9,68.5,29.98,SSE,161,1.4,1.4,73,0.00,SCT,,0.00,WeatherDisplay:10.37,2013-05-21 18:54:00,
2013-05-21 14:59:00,78.1,69.5,29.98,SSE,161,0.0,2.3,75,0.00,SCT,,0.00,WeatherDisplay:10.37,2013-05-21 18:59:00,
2013-05-21 15:04:00,78.1,69.1,29.97,South,175,4.1,5.0,74,0.00,SCT,,0.00,WeatherDisplay:10.37,2013-05-21 19:04:00,
2013-05-21 15:09:00,77.4,69.2,29.97,SSE,162,5.2,6.9,76,0.00,SCT,,0.00,WeatherDisplay:10.37,2013-05-21 19:09:00,
2013-05-21 15:14:00,76.8,68.7,29.97,SSE,163,4.5,4.6,76,0.00,SCT,,0.00,WeatherDisplay:10.37,2013-05-21 19:14:00,
2013-05-21 15:19:00,76.7,68.2,29.97,SSE,164,4.8,7.0,75,0.00,SCT,,0.00,WeatherDisplay:10.37,2013-05-21 19:19:00,
2013-05-21 15:24:00,76.7,68.9,29.96,SSE,163,5.3,7.0,77,0.00,SCT,,0.00,WeatherDisplay:10.37,2013-05-21 19:24:00,
2013-05-21 15:29:00,77.0,68.9,29.95,SSE,151,4.8,5.0,76,0.00,SCT,,0.00,WeatherDisplay:10.37,2013-05-21 19:29:00,
2013-05-21 15:34:00,77.4,69.2,29.95,SSE,155,5.0,8.1,76,0.00,SCT,,0.00,WeatherDisplay:10.37,2013-05-21 19:34:00,
2013-05-21 15:39:00,77.4,69.2,29.95,SSE,159,6.2,8.1,76,0.00,SCT,,0.00,WeatherDisplay:10.37,2013-05-21 19:39:00,
2013-05-21 15:44:00,77.2,68.7,29.95,SSE,161,3.5,5.8,75,0.00,BKN,,0.00,WeatherDisplay:10.37,2013-05-21 19:44:00,
2013-05-21 15:49:00,77.6,69.0,29.95,SSE,157,4.5,5.8,75,0.00,BKN,,0.00,WeatherDisplay:10.37,2013-05-21 19:49:00,
2013-05-21 15:54:00,77.7,68.7,29.95,SSE,168,3.6,4.6,74,0.00,BKN,,0.00,WeatherDisplay:10.37,2013-05-21 19:54:00,
2013-05-21 15:59:00,77.9,68.9,29.95,SSE,161,5.4,6.9,74,0.00,BKN,,0.00,WeatherDisplay:10.37,2013-05-21 19:59:00,
2013-05-21 16:04:00,77.9,68.9,29.95,South,173,3.8,5.8,74,0.00,SCT,,0.00,WeatherDisplay:10.37,2013-05-21 20:04:00,
2013-05-21 16:09:00,78.1,69.1,29.95,SSE,163,4.4,5.8,74,0.00,SCT,,0.00,WeatherDisplay:10.37,2013-05-21 20:09:00,
2013-05-21 16:14:00,78.3,69.7,29.94,SSE,163,5.5,6.9,75,0.00,CLR,,0.00,WeatherDisplay:10.37,2013-05-21 20:14:00,
2013-05-21 16:19:00,78.1,69.1,29.94,SSE,156,5.1,6.0,74,0.00,CLR,,0.00,WeatherDisplay:10.37,2013-05-21 20:19:00,
2013-05-21 16:24:00,78.1,69.1,29.94,SSE,166,4.7,6.0,74,0.00,CLR,,0.00,WeatherDisplay:10.37,2013-05-21 20:24:00,
2013-05-21 16:29:00,78.1,69.1,29.94,South,170,5.4,9.2,74,0.00,CLR,,0.00,WeatherDisplay:10.37,2013-05-21 20:29:00,
2013-05-21 16:34:00,77.9,68.9,29.93,SSE,161,5.2,9.2,74,0.00,CLR,,0.00,WeatherDisplay:10.37,2013-05-21 20:34:00,
2013-05-21 16:39:00,77.9,68.9,29.93,SSE,159,5.8,6.9,74,0.00,CLR,,0.00,WeatherDisplay:10.37,2013-05-21 20:39:00,
2013-05-21 16:44:00,78.1,69.1,29.93,SSE,160,6.0,11.0,74,0.00,CLR,CLR,0.00,WeatherDisplay:10.37,2013-05-21 20:44:00,
2013-05-21 16:49:00,78.3,69.3,29.93,South,171,4.4,5.8,74,0.00,CLR,,0.00,WeatherDisplay:10.37,2013-05-21 20:49:00,
2013-05-21 16:54:00,78.1,69.1,29.93,SSE,163,4.7,8.1,74,0.00,CLR,,0.00,WeatherDisplay:10.37,2013-05-21 20:54:00,
2013-05-21 16:59:00,78.3,69.3,29.93,SSE,166,5.0,6.9,74,0.00,CLR,,0.00,WeatherDisplay:10.37,2013-05-21 20:59:00,
2013-05-21 17:04:00,78.1,68.7,29.92,SSE,163,6.0,8.0,73,0.00,CLR,CLR,0.00,WeatherDisplay:10.37,2013-05-21 21:04:00,
2013-05-21 17:09:00,78.3,68.9,29.93,South,169,4.8,6.9,73,0.00,CLR,,0.00,WeatherDisplay:10.37,2013-05-21 21:09:00,
2013-05-21 17:14:00,78.4,69.5,29.93,SSE,168,3.0,11.0,74,0.00,CLR,CLR,0.00,WeatherDisplay:10.37,2013-05-21 21:14:00,
2013-05-21 17:19:00,78.3,69.3,29.93,SSE,161,3.9,5.8,74,0.00,CLR,,0.00,WeatherDisplay:10.37,2013-05-21 21:19:00,
2013-05-21 17:24:00,78.3,69.3,29.93,SSE,161,3.9,4.6,74,0.00,CLR,,0.00,WeatherDisplay:10.37,2013-05-21 21:24:00,
2013-05-21 17:29:00,78.3,69.3,29.92,SSE,164,4.7,9.0,74,0.00,CLR,,0.00,WeatherDisplay:10.37,2013-05-21 21:29:00,
2013-05-21 17:34:00,78.3,69.3,29.92,SSE,157,4.3,5.0,74,0.00,CLR,,0.00,WeatherDisplay:10.37,2013-05-21 21:34:00,
2013-05-21 17:39:00,78.3,69.3,29.92,South,172,4.7,6.0,74,0.00,CLR,,0.00,WeatherDisplay:10.37,2013-05-21 21:39:00,
2013-05-21 17:44:00,78.3,69.3,29.92,SSE,167,5.0,11.0,74,0.00,CLR,CLR,0.00,WeatherDisplay:10.37,2013-05-21 21:44:00,
2013-05-21 17:49:00,78.1,69.1,29.92,South,170,4.8,5.8,74,0.00,CLR,,0.00,WeatherDisplay:10.37,2013-05-21 21:49:00,
2013-05-21 17:54:00,77.9,69.0,29.92,South,170,5.0,6.0,74,0.00,CLR,CLR,0.00,WeatherDisplay:10.37,2013-05-21 21:54:00,
2013-05-21 17:59:00,77.9,68.9,29.91,SSE,159,6.3,9.2,74,0.00,CLR,,0.00,WeatherDisplay:10.37,2013-05-21 21:59:00,
2013-05-21 18:04:00,78.1,69.1,29.92,SSE,168,5.1,6.0,74,0.00,CLR,,0.00,WeatherDisplay:10.37,2013-05-21 22:04:00,
2013-05-21 18:09:00,78.1,69.1,29.92,SSE,168,4.9,6.0,74,0.00,CLR,,0.00,WeatherDisplay:10.37,2013-05-21 22:09:00,
2013-05-21 18:14:00,78.1,69.1,29.92,SSE,167,5.0,6.0,74,0.00,CLR,CLR,0.00,WeatherDisplay:10.37,2013-05-21 22:14:00,
2013-05-21 18:19:00,78.1,69.1,29.92,SSE,168,4.9,5.8,74,0.00,CLR,,0.00,WeatherDisplay:10.37,2013-05-21 22:19:00,
2013-05-21 18:24:00,77.9,68.9,29.92,SSE,164,6.0,11.0,74,0.00,CLR,CLR,0.00,WeatherDisplay:10.37,2013-05-21 22:24:00,
2013-05-21 18:29:00,77.9,69.3,29.92,SSE,162,3.1,6.9,75,0.00,CLR,,0.00,WeatherDisplay:10.37,2013-05-21 22:29:00,
2013-05-21 18:34:00,77.9,68.9,29.92,SSE,168,3.0,11.0,74,0.00,CLR,CLR,0.00,WeatherDisplay:10.37,2013-05-21 22:34:00,
2013-05-21 18:39:00,77.7,69.1,29.92,South,175,3.4,3.5,75,0.00,CLR,,0.00,WeatherDisplay:10.37,2013-05-21 22:39:00,
2013-05-21 18:44:00,77.7,69.1,29.92,South,175,3.8,4.6,75,0.00,CLR,,0.00,WeatherDisplay:10.37,2013-05-21 22:44:00,
2013-05-21 18:49:00,77.6,68.7,29.91,SSE,165,4.9,5.8,74,0.00,CLR,,0.00,WeatherDisplay:10.37,2013-05-21 22:49:00,
2013-05-21 18:54:00,77.4,68.9,29.91,South,175,3.9,4.6,75,0.00,CLR,,0.00,WeatherDisplay:10.37,2013-05-21 22:54:00,
2013-05-21 18:59:00,77.0,68.9,29.92,South,175,3.9,4.6,76,0.00,CLR,,0.00,WeatherDisplay:10.37,2013-05-21 22:59:00,
2013-05-21 19:04:00,76.8,68.7,29.92,South,175,4.5,5.8,76,0.00,CLR,,0.00,WeatherDisplay:10.37,2013-05-21 23:04:00,
2013-05-21 19:09:00,76.7,69.0,29.91,South,173,3.0,11.0,77,0.00,CLR,CLR,0.00,WeatherDisplay:10.37,2013-05-21 23:09:00,
2013-05-21 19:14:00,76.7,68.9,29.91,South,172,3.1,4.0,77,0.00,CLR,,0.00,WeatherDisplay:10.37,2013-05-21 23:14:00,
2013-05-21 19:19:00,76.7,69.3,29.92,South,172,3.0,11.0,78,0.00,CLR,CLR,0.00,WeatherDisplay:10.37,2013-05-21 23:19:00,
2013-05-21 19:24:00,76.7,69.3,29.92,South,172,2.6,3.5,78,0.00,CLR,,0.00,WeatherDisplay:10.37,2013-05-21 23:24:00,
2013-05-21 19:29:00,76.5,69.1,29.91,South,172,3.0,11.0,78,0.00,CLR,CLR,0.00,WeatherDisplay:10.37,2013-05-21 23:29:00,
2013-05-21 19:34:00,76.5,69.1,29.91,South,172,3.2,3.5,78,0.00,CLR,,0.00,WeatherDisplay:10.37,2013-05-21 23:34:00,
2013-05-21 19:39:00,76.3,69.3,29.91,South,172,3.0,11.0,79,0.00,CLR,CLR,0.00,WeatherDisplay:10.37,2013-05-21 23:39:00,
2013-05-21 19:44:00,76.1,69.5,29.92,South,172,2.8,5.0,80,0.00,CLR,,0.00,WeatherDisplay:10.37,2013-05-21 23:44:00,
2013-05-21 19:49:00,76.0,69.4,29.92,South,172,3.0,3.5,80,0.00,CLR,,0.00,WeatherDisplay:10.37,2013-05-21 23:49:00,
2013-05-21 19:54:00,75.8,69.2,29.91,South,172,3.7,4.6,80,0.00,CLR,,0.00,WeatherDisplay:10.37,2013-05-21 23:54:00,
2013-05-21 19:59:00,75.8,69.2,29.91,South,172,4.3,5.0,80,0.00,CLR,,0.00,WeatherDisplay:10.37,2013-05-21 23:59:00,
2013-05-21 20:04:00,75.6,69.0,29.91,South,172,4.1,5.0,80,0.00,CLR,,0.00,WeatherDisplay:10.37,2013-05-22 00:04:00,
2013-05-21 20:09:00,75.6,69.0,29.90,SSE,159,4.8,6.0,80,0.00,CLR,,0.00,WeatherDisplay:10.37,2013-05-22 00:09:00,
2013-05-21 20:14:00,75.6,69.0,29.90,SSE,159,5.2,5.8,80,0.00,CLR,,0.00,WeatherDisplay:10.37,2013-05-22 00:14:00,
2013-05-21 20:19:00,75.6,69.0,29.90,SSE,156,5.8,6.9,80,0.00,CLR,,0.00,WeatherDisplay:10.37,2013-05-22 00:19:00,
2013-05-21 20:24:00,75.6,69.0,29.90,SSE,156,5.1,6.9,80,0.00,CLR,,0.00,WeatherDisplay:10.37,2013-05-22 00:24:00,
2013-05-21 20:29:00,75.6,69.0,29.90,SSE,156,4.7,5.8,80,0.00,CLR,,0.00,WeatherDisplay:10.37,2013-05-22 00:29:00,
2013-05-21 20:34:00,75.6,69.0,29.90,SSE,156,3.6,4.6,80,0.00,CLR,,0.00,WeatherDisplay:10.37,2013-05-22 00:34:00,
2013-05-21 20:39:00,75.6,69.0,29.90,SSE,156,3.4,4.0,80,0.00,CLR,,0.00,WeatherDisplay:10.37,2013-05-22 00:39:00,
2013-05-21 20:44:00,75.4,68.8,29.91,SSE,157,3.2,3.5,80,0.00,CLR,,0.00,WeatherDisplay:10.37,2013-05-22 00:44:00,
2013-05-21 20:49:00,75.4,68.8,29.91,SSE,158,3.7,4.6,80,0.00,CLR,,0.00,WeatherDisplay:10.37,2013-05-22 00:49:00,
2013-05-21 20:54:00,75.3,69.1,29.91,SSE,158,4.0,4.0,81,0.00,CLR,,0.00,WeatherDisplay:10.37,2013-05-22 00:54:00,
2013-05-21 20:59:00,75.1,69.2,29.91,South,170,3.8,4.0,82,0.00,CLR,,0.00,WeatherDisplay:10.37,2013-05-22 00:59:00,
2013-05-21 21:04:00,74.7,68.8,29.91,South,169,3.9,5.0,82,0.00,CLR,,0.00,WeatherDisplay:10.37,2013-05-22 01:04:00,
2013-05-21 21:09:00,74.7,68.8,29.91,SSE,164,4.4,5.8,82,0.00,CLR,,0.00,WeatherDisplay:10.37,2013-05-22 01:09:00,
2013-05-21 21:14:00,74.6,68.7,29.91,South,170,4.6,5.8,82,0.00,CLR,,0.00,WeatherDisplay:10.37,2013-05-22 01:14:00,
2013-05-21 21:19:00,74.6,69.1,29.91,South,169,5.3,6.9,83,0.00,CLR,,0.00,WeatherDisplay:10.37,2013-05-22 01:19:00,
2013-05-21 21:24:00,74.6,69.1,29.91,South,169,3.5,4.6,83,0.00,CLR,,0.00,WeatherDisplay:10.37,2013-05-22 01:24:00,
2013-05-21 21:29:00,74.4,68.9,29.91,South,169,3.8,11.0,83,0.00,CLR,,0.00,WeatherDisplay:10.37,2013-05-22 01:29:00,
2013-05-21 21:35:00,74.4,68.9,29.91,South,169,3.9,4.6,83,0.00,CLR,,0.00,WeatherDisplay:10.37,2013-05-22 01:35:00,
2013-05-21 21:40:00,74.0,68.5,29.92,South,169,3.2,11.0,83,0.00,CLR,,0.00,WeatherDisplay:10.37,2013-05-22 01:40:00,
2013-05-21 21:45:00,73.9,68.8,29.91,South,169,2.8,11.0,84,0.00,CLR,,0.00,WeatherDisplay:10.37,2013-05-22 01:45:00,
2013-05-21 21:50:00,73.9,68.8,29.91,South,169,3.0,3.5,84,0.00,CLR,,0.00,WeatherDisplay:10.37,2013-05-22 01:50:00,
2013-05-21 21:55:00,73.7,68.6,29.91,South,169,2.9,3.5,84,0.00,CLR,,0.00,WeatherDisplay:10.37,2013-05-22 01:55:00,
2013-05-21 22:00:00,73.5,68.7,29.92,South,169,2.3,3.5,85,0.00,CLR,,0.00,WeatherDisplay:10.37,2013-05-22 02:00:00,
2013-05-21 22:05:00,73.5,68.7,29.92,South,169,3.5,4.0,85,0.00,CLR,,0.00,WeatherDisplay:10.37,2013-05-22 02:05:00,
2013-05-21 22:10:00,73.3,68.5,29.92,South,169,2.8,3.5,85,0.00,CLR,,0.00,WeatherDisplay:10.37,2013-05-22 02:10:00,
2013-05-21 22:15:00,73.2,68.4,29.92,South,169,0.6,2.0,85,0.00,CLR,,0.00,WeatherDisplay:10.37,2013-05-22 02:15:00,
2013-05-21 22:20:00,72.8,68.4,29.92,South,169,2.1,3.5,86,0.00,CLR,,0.00,WeatherDisplay:10.37,2013-05-22 02:20:00,
2013-05-21 22:25:00,72.7,68.3,29.92,South,169,2.1,3.5,86,0.00,CLR,,0.00,WeatherDisplay:10.37,2013-05-22 02:25:00,
2013-05-21 22:30:00,72.5,68.4,29.91,South,169,3.1,3.5,87,0.00,CLR,,0.00,WeatherDisplay:10.37,2013-05-22 02:30:00,
2013-05-21 22:35:00,72.7,68.9,29.91,South,169,3.5,4.6,88,0.00,CLR,,0.00,WeatherDisplay:10.37,2013-05-22 02:35:00,
2013-05-21 22:40:00,72.7,68.9,29.91,South,169,3.2,3.5,88,0.00,CLR,,0.00,WeatherDisplay:10.37,2013-05-22 02:40:00,
2013-05-21 22:45:00,72.7,68.9,29.91,South,169,2.6,3.5,88,0.00,CLR,,0.00,WeatherDisplay:10.37,2013-05-22 02:45:00,
2013-05-21 22:50:00,72.7,68.9,29.91,South,169,3.1,3.5,88,0.00,CLR,,0.00,WeatherDisplay:10.37,2013-05-22 02:50:00,
2013-05-21 22:55:00,72.5,68.7,29.91,South,169,0.8,3.5,88,0.00,CLR,,0.00,WeatherDisplay:10.37,2013-05-22 02:55:00,
2013-05-21 23:00:00,72.3,68.5,29.92,South,169,0.0,0.0,88,0.00,CLR,,0.00,WeatherDisplay:10.37,2013-05-22 03:00:00,
2013-05-21 23:05:00,71.8,68.1,29.92,South,169,0.0,0.0,88,0.00,CLR,,0.00,WeatherDisplay:10.37,2013-05-22 03:05:00,
2013-05-21 23:10:00,71.6,67.9,29.92,South,169,0.0,0.0,88,0.00,CLR,,0.00,WeatherDisplay:10.37,2013-05-22 03:10:00,
2013-05-21 23:15:00,71.5,67.8,29.92,South,169,0.0,0.0,88,0.00,CLR,,0.00,WeatherDisplay:10.37,2013-05-22 03:15:00,
2013-05-21 23:20:00,71.1,67.7,29.92,South,169,0.0,0.0,89,0.00,CLR,,0.00,WeatherDisplay:10.37,2013-05-22 03:20:00,
2013-05-21 23:25:00,70.9,67.5,29.92,South,169,0.0,0.0,89,0.00,CLR,,0.00,WeatherDisplay:10.37,2013-05-22 03:25:00,
2013-05-21 23:30:00,70.8,67.4,29.92,South,169,0.0,0.0,89,0.00,CLR,,0.00,WeatherDisplay:10.37,2013-05-22 03:30:00,
2013-05-21 23:35:00,70.9,67.8,29.91,South,169,0.0,0.0,90,0.00,CLR,,0.00,WeatherDisplay:10.37,2013-05-22 03:35:00,
2013-05-21 23:40:00,71.1,68.0,29.91,South,169,2.1,3.5,90,0.00,CLR,,0.00,WeatherDisplay:10.37,2013-05-22 03:40:00,
2013-05-21 23:45:00,71.1,68.3,29.91,South,169,2.1,3.5,91,0.00,CLR,,0.00,WeatherDisplay:10.37,2013-05-22 03:45:00,
2013-05-21 23:50:00,70.9,68.1,29.91,South,169,0.1,0.0,91,0.00,CLR,,0.00,WeatherDisplay:10.37,2013-05-22 03:50:00,
2013-05-21 23:55:00,70.9,68.1,29.91,South,169,1.0,2.3,91,0.00,CLR,,0.00,WeatherDisplay:10.37,2013-05-22 03:55:00,